Location: Gökben Yaylas?
(36.8988°N, 29.6291°E)
Time: 16:04:44
(UTC+00:00)

Cosmos 1354 Rocket - Pass Details

Date: 15 May 2026
Orbit: 761 x 778 km, 74.0° (Epoch: 10 June)

Event Time Altitude Azimuth Distance (km) Brightness Sun altitude
Rises 20:20:57 0° 343° (NNW) 3,236 8.4 -29.6°
Reaches altitude 10° 20:23:20 10° 344° (NNW) 2,304 7.4 -29.8°
Enters shadow 20:27:30 57° 355° (N) 893 4.5 -30.2°
